Home > Weather > Darwin > Past weeks

Flag for Australia Past Weather in Darwin, Northern Territory, Australia — Yesterday and Last 2 Weeks

Now
86 °F

Sunny.


Feels Like: 85 °F
Forecast: 73 / 89 °F
Wind: 16 mph from Southeast

Location: Darwin Airport

Current Time: Jul 26, 2016 at 12:12:10 PM

Latest Report: Jul 26, 2016 at 11:30 AM


Visibility: 10 mi

Pressure: 29.92 "Hg

Humidity: 35%

Dew Point: 55 °F

Location of DarwinLocation

Past Weather in Darwin — Graph

°F

Darwin Temperature Yesterday

Maximum temperature yesterday: 90 °F (at 12:30 PM)
Minimum temperature yesterday: 72 °F (at 2:30 AM)
Average temperature yesterday: 79 °F

High & Low Weather Summary for the Past Weeks

 TemperatureHumidityPressure
High90 °F (Jul 25, 12:30 PM)100% (Jul 21, 5:30 AM)30.04 "Hg (Jul 21, 5:30 AM)
Low57 °F (Jul 18, 4:30 AM)19% (Jul 18, 1:30 PM)29.80 "Hg (Jul 22, 3:30 PM)
Average76 °F63%29.91 "Hg
* Reported Jul 11 10:30 AM — Jul 26 10:30 AM, Darwin, Weather by CustomWeather, © 2016

Note: Actual official high and low records may vary slightly from our data, if they occured in-between our weather recording intervals... More about our weather records

Advertising

Darwin Weather History for the Previous 24 Hours

Scroll right to see more
 ConditionsComfort  
Time TempWeatherWind HumidityBarometerVisibility
10:30 AM
Tue, Jul 26
84 °FSunny.18 mph43%29.95 "Hg10 mi
10:00 AM82 °FSunny.13 mph48%29.95 "Hg10 mi
9:30 AM82 °FSunny.10 mph55%29.95 "Hg10 mi
9:00 AM81 °FSunny.8 mph66%29.95 "Hg10 mi
8:30 AM79 °FSunny.6 mph74%29.95 "Hg10 mi
8:00 AM75 °FSunny.6 mph78%29.92 "Hg10 mi
7:30 AM68 °FLight fog.3 mph100%29.92 "HgN/A
7:00 AM70 °FLight fog.6 mph94%29.92 "HgN/A
6:30 AM70 °FLight fog.6 mph94%29.92 "HgN/A
6:00 AM70 °FClear.1 mph94%29.92 "Hg10 mi
5:30 AM70 °FClear.No wind100%29.92 "Hg10 mi
5:00 AM70 °FClear.No wind100%29.92 "HgN/A
4:30 AM72 °FClear.No wind94%29.89 "HgN/A
4:00 AM72 °FClear.6 mph94%29.89 "HgN/A
3:30 AM72 °FClear.3 mph94%29.89 "HgN/A
3:00 AM72 °FPassing clouds.3 mph94%29.89 "HgN/A
2:30 AM72 °FOvercast.3 mph94%29.89 "HgN/A
2:00 AM72 °FClear.3 mph94%29.89 "Hg10 mi
1:30 AM72 °FClear.2 mph94%29.92 "Hg10 mi
1:00 AM72 °FClear.6 mph94%29.92 "Hg10 mi
12:30 AM72 °FClear.5 mph94%29.92 "Hg10 mi
12:00 AM73 °FClear.2 mph89%29.92 "Hg10 mi
11:30 PM
Mon, Jul 25
73 °FClear.5 mph89%29.92 "Hg10 mi
11:00 PM73 °FClear.3 mph89%29.92 "Hg10 mi
10:30 PM73 °FClear.No wind89%29.92 "Hg10 mi
10:00 PM73 °FClear.3 mph89%29.92 "Hg10 mi
9:30 PM75 °FClear.3 mph78%29.89 "Hg10 mi
9:00 PM77 °FClear.5 mph79%29.89 "Hg10 mi
8:30 PM77 °FClear.7 mph79%29.89 "Hg10 mi
8:00 PM79 °FClear.8 mph70%29.86 "Hg10 mi
7:30 PM79 °FClear.7 mph74%29.86 "Hg10 mi
7:00 PM81 °FSunny.6 mph58%29.86 "Hg10 mi
6:30 PM82 °FSunny.7 mph55%29.83 "Hg10 mi
6:00 PM82 °FSunny.10 mph55%29.83 "Hg10 mi
5:30 PM84 °FSunny.10 mph55%29.83 "Hg10 mi
5:00 PM84 °FPassing clouds.13 mph55%29.83 "HgN/A
4:30 PM86 °FSunny.13 mph52%29.83 "Hg10 mi
4:00 PM86 °FPassing clouds.14 mph55%29.83 "HgN/A
3:30 PM86 °FSunny.15 mph55%29.83 "Hg10 mi
3:00 PM86 °FSunny.14 mph55%29.83 "Hg10 mi
2:30 PM88 °FPassing clouds.10 mph52%29.83 "HgN/A
2:00 PM90 °FSunny.6 mph31%29.86 "Hg10 mi
1:30 PM90 °FPassing clouds.7 mph31%29.86 "HgN/A
1:00 PM90 °FSunny.13 mph33%29.86 "Hg10 mi
12:30 PM90 °FSunny.13 mph36%29.89 "Hg10 mi
12:00 PM86 °FPassing clouds.10 mph43%29.89 "HgN/A
Weather by CustomWeather, © 2016

See weather overviewHow to use our weather pages